[[{"header":{"parameterUnit":"m.s-1","parameterCategory":1,"la1":30.2991,"la2":30.254,"lo1":-89.0895,"lo2":-89.0444,"dy":0.0017,"dx":0.0017,"nx":28,"ny":28,"refTime":"2024-08-08T03:00:00:Z","depth":0,"parameterNumber":2,"parameterNumberName":"U-component_of_WINDS"},"data":[0,0,0,0,0,0,0,0,0,0,0,0,0,0,0,0,0,0,0,0,0,0,0,0,0,0,0,0,0,0,0,0,0,0,0,0,0,0,0,0,0,0,0,0,0,0,0,0,0,0,0,0,0,0,0,0,0,0,0.5649,0.565,0,0.5744,0.5745,0.5746,0.5817,0.5818,0.5819,0.5819,0.5916,0.5918,0.592,0,0,0,0,0,0,0,0,0,0,0,0,0,0.5528,0.553,0.5649,0.565,0.5651,0.5744,0.5745,0.5747,0.5817,0.5818,0.5819,0.5819,0.5916,0.5918,0.5921,0,0,0,0,0,0,0,0,0,0,0,0,0,0.5598,0.5531,0.5648,0.5697,0.5703,0.5744,0.5745,0.5747,0.5817,0.5818,0.5819,0.582,0.5915,0.5918,0.5921,0.5921,0,0,0.593,0.5931,0,0,0,0,0,0,0,0,0.5594,0.5602,0.5689,0.5694,0.57,0.577,0.5739,0.5805,0.5817,0.5774,0.5819,0.582,0.5867,0.5874,0.589,0.5925,0.5929,0.593,0.5932,0.5934,0.5934,0,0,0,0,0,0,0,0.5589,0.5598,0.5686,0.569,0.5697,0.5715,0.5726,0.5752,0.5814,0.5777,0.5783,0.5793,0.587,0.5887,0.5893,0.5931,0.593,0.5933,0.5935,0.5936,0.5972,0.5971,0,0,0,0,0,0,0.5576,0.5594,0.5683,0.5689,0.5648,0.5716,0.5729,0.5746,0.5814,0.5825,0.5792,0.5796,0.5881,0.5889,0.5896,0.5901,0.5933,0.5936,0.5938,0.5973,0.5972,0.5971,0,0,0,0,0,0,0.5573,0.5584,0.568,0.5643,0.5657,0.5717,0.5737,0.5748,0.5765,0.5825,0.5836,0.5798,0.5882,0.5892,0.5914,0.5905,0.5938,0.594,0.5974,0.5972,0.5971,0.5909,0,0,0,0,0,0,0.557,0.5582,0.5582,0.5643,0.5658,0.5695,0.5736,0.5749,0.577,0.5775,0.5833,0.5843,0.5884,0.5909,0.5917,0.591,0.5943,0.5975,0.5973,0.5972,0.5912,0.5906,0.59,0,0,0,0,0,0.5565,0.5561,0.5582,0.5592,0.566,0.5695,0.5704,0.575,0.5768,0.5769,0.5808,0.5842,0.5905,0.5911,0.5921,0.5914,0.5976,0.5974,0.5972,0.5915,0.5907,0.59,0,0,0,0,0,0,0.5498,0.557,0.5594,0.5609,0.5645,0.5707,0.5709,0.574,0.5772,0.5776,0.5833,0.5845,0.5861,0.589,0.5896,0.5917,0.5944,0.5944,0.5898,0.5891,0.5885,0.5877,0.5945,0,0,0,0,0,0.5484,0.5507,0.5569,0.5576,0.5593,0.5648,0.5665,0.5697,0.5737,0.5753,0.5794,0.5831,0.586,0.5877,0.5907,0.5917,0.5931,0.5917,0.5911,0.5906,0.5905,0.5913,0.5908,0.5964,0.5964,0.5964,0,0,0.5457,0.55,0.551,0.5563,0.5595,0.5617,0.566,0.5681,0.5698,0.5756,0.578,0.5811,0.5857,0.5873,0.5882,0.5897,0.5892,0.5903,0.5899,0.5901,0.591,0.5905,0.59,0.5963,0.5963,0.5964,0,0,0.5419,0.5453,0.5463,0.5495,0.5543,0.558,0.5582,0.5639,0.5662,0.5687,0.5731,0.5752,0.58,0.5831,0.5853,0.5828,0.5859,0.5836,0.5804,0.5811,0.5807,0.5803,0.5794,0.579,0.5835,0.5834,0.5834,0,0.5379,0.5414,0.5464,0.5483,0.5505,0.556,0.557,0.5598,0.5653,0.5668,0.5684,0.5746,0.578,0.5805,0.5799,0.5815,0.5819,0.5829,0.5803,0.58,0.5798,0.5789,0.5786,0.5831,0.5832,0.5832,0.5832,0,0.5363,0.5386,0.5388,0.544,0.5463,0.5478,0.5531,0.5548,0.5579,0.5614,0.5639,0.5682,0.5722,0.5731,0.5761,0.576,0.5767,0.5793,0.5821,0.5788,0.5781,0.5779,0.5827,0.5828,0.5829,0.583,0,0,0.5283,0.5364,0.5364,0.5388,0.5446,0.5465,0.5483,0.5522,0.5535,0.5572,0.5588,0.5628,0.5652,0.5677,0.5712,0.5718,0.5695,0.5743,0.5745,0.5732,0.5697,0.5676,0.5672,0.5717,0.5717,0.5717,0.5693,0,0.5253,0.5287,0.5334,0.5352,0.5375,0.5427,0.5442,0.548,0.5513,0.5537,0.5575,0.5602,0.5632,0.5648,0.5656,0.5696,0.5689,0.5699,0.5733,0.5733,0.5718,0.5669,0.5647,0.5622,0.569,0.569,0.569,0,0.5223,0.5257,0.5277,0.5334,0.5345,0.5358,0.5398,0.542,0.5464,0.5488,0.5516,0.5554,0.5576,0.5602,0.5632,0.5638,0.5655,0.5677,0.5677,0.5681,0.5708,0.5671,0.5615,0.5611,0.5686,0.5686,0.5687,0,0.5162,0.5213,0.5232,0.5252,0.5318,0.5326,0.5354,0.5399,0.542,0.5455,0.5469,0.5506,0.5526,0.5554,0.5601,0.5616,0.5627,0.5656,0.5647,0.5646,0.5646,0.5645,0.5592,0.5658,0.5658,0.5658,0.5658,0,0.5124,0.5134,0.5206,0.5218,0.5231,0.5285,0.5297,0.533,0.5369,0.5389,0.5437,0.5454,0.5515,0.554,0.5577,0.5597,0.5605,0.5626,0.5635,0.5621,0.5618,0.5632,0.5634,0.5657,0.5657,0.5658,0.5658,0,0.5058,0.5106,0.5131,0.5192,0.5208,0.5215,0.5268,0.5281,0.5318,0.5342,0.5351,0.5409,0.544,0.549,0.5536,0.5561,0.5574,0.5591,0.5559,0.5565,0.5552,0.5552,0.5505,0.5502,0.557,0.557,0.5569,0,0.503,0.5039,0.5101,0.5118,0.5144,0.517,0.5191,0.5245,0.5265,0.5317,0.5324,0.5359,0.539,0.5438,0.5484,0.552,0.5537,0.5518,0.5543,0.5528,0.5536,0.5535,0.5536,0.5512,0.5511,0.551,0.5509,0,0.4974,0.4998,0.5027,0.5065,0.5089,0.5121,0.5156,0.5167,0.5228,0.5249,0.5282,0.5305,0.5353,0.5387,0.543,0.5459,0.5494,0.5502,0.5501,0.5486,0.5467,0.5477,0.5543,0.5502,0.5503,0.5503,0.5504,0.5504,0.4926,0.4937,0.4983,0.5014,0.5045,0.5077,0.5093,0.5132,0.516,0.5203,0.5233,0.5264,0.5308,0.5369,0.5397,0.5422,0.5437,0.5437,0.5437,0.5436,0.543,0.5464,0.543,0.543,0.5431,0.5431,0.5431,0,0.4873,0.4905,0.4933,0.498,0.5004,0.5036,0.5076,0.5095,0.5121,0.516,0.5189,0.5227,0.5261,0.5311,0.5348,0.5359,0.5376,0.5367,0.5366,0.5373,0.5414,0.541,0.5353,0.5353,0.5353,0.5353,0.5353,0.5353,0.4848,0.4868,0.4897,0.4934,0.4966,0.4997,0.5017,0.5046,0.5077,0.5117,0.5146,0.5178,0.5221,0.5263,0.5295,0.5309,0.5321,0.5306,0.5325,0.5363,0.537,0.5377,0.5373,0.5309,0.5308,0.5281,0.5281,0.5281]},{"header":{"parameterUnit":"m.s-1","parameterCategory":1,"la1":30.2991,"la2":30.254,"lo1":-89.0895,"lo2":-89.0444,"dy":0.0017,"dx":0.0017,"nx":28,"ny":28,"refTime":"2024-08-08T03:00:00:Z","depth":0,"parameterNumber":3,"parameterNumberName":"V-component_of_WINDS"},"data":[0,0,0,0,0,0,0,0,0,0,0,0,0,0,0,0,0,0,0,0,0,0,0,0,0,0,0,0,0,0,0,0,0,0,0,0,0,0,0,0,0,0,0,0,0,0,0,0,0,0,0,0,0,0,0,0,0,0,-4.5873,-4.5873,0,-4.5861,-4.5861,-4.5861,-4.5748,-4.5745,-4.5743,-4.574,-4.5726,-4.5729,-4.5731,0,0,0,0,0,0,0,0,0,0,0,0,0,-4.5801,-4.5802,-4.5873,-4.5873,-4.5873,-4.5861,-4.5861,-4.5861,-4.5749,-4.5745,-4.5742,-4.5739,-4.5726,-4.5728,-4.5731,0,0,0,0,0,0,0,0,0,0,0,0,0,-4.5815,-4.5803,-4.5874,-4.5816,-4.581,-4.5861,-4.5861,-4.5861,-4.5749,-4.5745,-4.5741,-4.5737,-4.5725,-4.5728,-4.5731,-4.5836,0,0,-4.5742,-4.5743,0,0,0,0,0,0,0,0,-4.5814,-4.5817,-4.5824,-4.582,-4.5814,-4.5802,-4.583,-4.5852,-4.575,-4.5773,-4.574,-4.5735,-4.5755,-4.5755,-4.5762,-4.5836,-4.5835,-4.5742,-4.5744,-4.5745,-4.5746,0,0,0,0,0,0,0,-4.5813,-4.5817,-4.5868,-4.5825,-4.5818,-4.5791,-4.5788,-4.5834,-4.5787,-4.577,-4.5762,-4.5762,-4.5751,-4.5759,-4.5761,-4.5835,-4.5742,-4.5745,-4.5747,-4.5748,-4.5995,-4.5999,0,0,0,0,0,0,-4.582,-4.5817,-4.5869,-4.5868,-4.5804,-4.5796,-4.5792,-4.581,-4.5787,-4.5779,-4.5766,-4.5757,-4.5756,-4.5757,-4.576,-4.5882,-4.5745,-4.5749,-4.5751,-4.599,-4.5996,-4.6001,0,0,0,0,0,0,-4.5819,-4.5826,-4.5869,-4.5841,-4.5844,-4.5801,-4.5822,-4.5812,-4.582,-4.5783,-4.5774,-4.5783,-4.5752,-4.5756,-4.5818,-4.588,-4.575,-4.5753,-4.5985,-4.5992,-4.5998,-4.6125,0,0,0,0,0,0,-4.5818,-4.5826,-4.5865,-4.5842,-4.5846,-4.5928,-4.5826,-4.5815,-4.5826,-4.5815,-4.5797,-4.579,-4.5749,-4.5814,-4.5822,-4.5882,-4.5756,-4.5979,-4.5988,-4.5996,-4.6116,-4.6136,-4.6153,0,0,0,0,0,-4.5815,-4.5901,-4.5868,-4.5874,-4.5894,-4.5932,-4.5934,-4.5886,-4.5832,-4.587,-4.5847,-4.579,-4.5872,-4.5822,-4.5829,-4.5891,-4.5975,-4.5986,-4.5995,-4.6107,-4.6132,-4.6153,0,0,0,0,0,0,-4.5931,-4.5897,-4.5859,-4.594,-4.594,-4.5912,-4.596,-4.5913,-4.5928,-4.5916,-4.5856,-4.5853,-4.5926,-4.5915,-4.5859,-4.5992,-4.5914,-4.5926,-4.5996,-4.6019,-4.6038,-4.6038,-4.5759,0,0,0,0,0,-4.5966,-4.6,-4.5968,-4.6042,-4.6044,-4.6003,-4.6017,-4.5981,-4.5978,-4.5977,-4.5958,-4.5957,-4.5983,-4.6001,-4.6022,-4.6114,-4.6109,-4.6161,-4.618,-4.6195,-4.6206,-4.6255,-4.6278,-4.6034,-4.6034,-4.6034,0,0,-4.6038,-4.6024,-4.6048,-4.6065,-4.606,-4.6097,-4.6003,-4.6045,-4.6071,-4.5983,-4.6041,-4.6028,-4.6023,-4.6102,-4.6135,-4.6095,-4.6273,-4.6209,-4.6221,-4.6223,-4.6268,-4.6291,-4.6312,-4.6041,-4.604,-4.6039,0,0,-4.6188,-4.6181,-4.6242,-4.624,-4.6235,-4.6207,-4.6223,-4.6203,-4.6191,-4.6249,-4.6184,-4.6215,-4.626,-4.626,-4.6266,-4.642,-4.6368,-4.6429,-4.6526,-4.6574,-4.6593,-4.661,-4.6665,-4.6685,-4.644,-4.644,-4.644,0,-4.6278,-4.633,-4.6279,-4.6327,-4.6336,-4.626,-4.6322,-4.6322,-4.6325,-4.6333,-4.6289,-4.6345,-4.6336,-4.6414,-4.6452,-4.6459,-4.6475,-4.6429,-4.6595,-4.6611,-4.6626,-4.6677,-4.6698,-4.6448,-4.6447,-4.6446,-4.6445,0,-4.6441,-4.6479,-4.6529,-4.6534,-4.655,-4.6605,-4.6563,-4.6585,-4.6549,-4.6526,-4.6587,-4.6575,-4.6593,-4.6609,-4.6573,-4.6682,-4.6658,-4.6605,-4.6525,-4.6657,-4.6705,-4.6724,-4.6458,-4.6455,-4.6453,-4.6451,0,0,-4.666,-4.6639,-4.6658,-4.666,-4.6651,-4.6679,-4.6731,-4.675,-4.677,-4.6775,-4.6817,-4.6859,-4.6811,-4.6818,-4.6782,-4.6825,-4.6948,-4.6766,-4.6765,-4.68,-4.7068,-4.7107,-4.713,-4.6914,-4.6918,-4.6921,-4.7068,0,-4.6803,-4.6891,-4.6848,-4.6941,-4.6975,-4.6905,-4.695,-4.695,-4.6932,-4.6958,-4.6937,-4.6968,-4.6902,-4.6906,-4.6945,-4.6924,-4.7,-4.6913,-4.6952,-4.6954,-4.6954,-4.7155,-4.7196,-4.7335,-4.7086,-4.7089,-4.7092,0,-4.6982,-4.6996,-4.7092,-4.7079,-4.7091,-4.7133,-4.7148,-4.7175,-4.7173,-4.7157,-4.7167,-4.7121,-4.7172,-4.7094,-4.7163,-4.7105,-4.7119,-4.7112,-4.7116,-4.7116,-4.703,-4.716,-4.7378,-4.7399,-4.712,-4.7118,-4.7116,0,-4.7131,-4.7175,-4.7238,-4.7242,-4.7228,-4.7259,-4.7254,-4.7249,-4.7264,-4.7277,-4.7286,-4.7305,-4.7316,-4.7332,-4.7293,-4.724,-4.7368,-4.7287,-4.7355,-4.7357,-4.7383,-4.7382,-4.7606,-4.7395,-4.7395,-4.7395,-4.7394,0,-4.7295,-4.7356,-4.7305,-4.7344,-4.7412,-4.7363,-4.7432,-4.7419,-4.7416,-4.7451,-4.7393,-4.7427,-4.7375,-4.7405,-4.7375,-4.7437,-4.7442,-4.743,-4.7422,-4.7435,-4.7437,-4.7442,-4.7431,-4.74,-4.7399,-4.7398,-4.7397,0,-4.7472,-4.744,-4.7504,-4.7487,-4.7484,-4.7535,-4.7519,-4.7555,-4.7534,-4.758,-4.7588,-4.7554,-4.7587,-4.7551,-4.758,-4.756,-4.7644,-4.7621,-4.7644,-4.7637,-4.7708,-4.7702,-4.7942,-4.7971,-4.7743,-4.7745,-4.7747,0,-4.7577,-4.7623,-4.7612,-4.7632,-4.7632,-4.7665,-4.768,-4.7636,-4.7654,-4.7658,-4.7693,-4.7721,-4.7741,-4.7796,-4.7774,-4.7797,-4.7773,-4.7856,-4.7776,-4.7789,-4.7774,-4.7771,-4.7776,-4.7872,-4.7875,-4.7877,-4.7879,0,-4.7769,-4.7752,-4.7776,-4.7797,-4.7818,-4.7831,-4.784,-4.786,-4.7814,-4.7838,-4.7871,-4.7887,-4.7918,-4.7947,-4.7964,-4.7958,-4.7912,-4.7905,-4.7922,-4.7935,-4.7946,-4.7941,-4.7688,-4.7899,-4.7897,-4.7895,-4.7894,-4.7893,-4.7912,-4.7951,-4.7949,-4.798,-4.7982,-4.7993,-4.8026,-4.801,-4.8037,-4.806,-4.8032,-4.8073,-4.8073,-4.8091,-4.8092,-4.8124,-4.8088,-4.8113,-4.8119,-4.8125,-4.8136,-4.7943,-4.8127,-4.8126,-4.8126,-4.8125,-4.8125,0,-4.81,-4.8097,-4.8125,-4.8141,-4.8166,-4.8121,-4.813,-4.8153,-4.819,-4.8194,-4.8216,-4.8255,-4.8283,-4.8265,-4.8289,-4.8318,-4.8297,-4.8325,-4.8322,-4.8322,-4.8166,-4.8149,-4.8342,-4.8342,-4.8342,-4.8342,-4.8342,-4.8342,-4.82,-4.8263,-4.8247,-4.8311,-4.8307,-4.8347,-4.8356,-4.8366,-4.8369,-4.8416,-4.844,-4.8428,-4.8424,-4.8447,-4.8472,-4.8465,-4.8477,-4.8513,-4.85,-4.8354,-4.8333,-4.8312,-4.8295,-4.8516,-4.8516,-4.8652,-4.8653,-4.8654]}]]